sat.trackr.live / text

‹ back to catalog

STARLINK-36575

NORAD 67569 · 2026-016J

PAYLOAD ACTIVE UNKNOWN

§ Identity

Operator
Country
US
Launch date
2026-01-25
Launch site
AFWTR
Launch vehicle
Mass (kg)
RCS (m²)

Purposes: comms

External: N2YO · Heavens-Above · Gunter

§ Orbital elements

Epoch: 2026-09-18T14:22:05.992608Z

Period
93.91 min
Inclination
97.2849°
Eccentricity
0.0000781
Mean motion
15.33443238 rev/d
Perigee alt
465.0 km
Apogee alt
466.1 km
Semi-major
6,843.7 km
B*
6.3958e-4
RAAN
321.2705°
Arg perigee
103.6490°
Mean anomaly
256.4840°
Rev number
3,649

§ Raw data

STARLINK-365751 67569U 26016J   26261.59868047  .00020628  00000+0  63958-3 0  99932 67569  97.2849 321.2705 0000781 103.6490 256.4840 15.33443238 36490

JSON: /api/v1/satellites/67569 · /tle

For live sub-satellite position, see the globe view (requires WebGL).

§ Visibility from observer

Set your observer location to see the next 7 days of passes ≥ 10°. The values pass through the URL so the page stays shareable.

No JS? Fill the form by hand. The geolocation button needs JavaScript.